EN

Hourly Weather Borodaivka

Today, 9 May, Sunday

Time Temperature Precipitation Wind Pressure Humidity
00:00 +3°C° 0 mm 6 mps 752 mmHg 84%
01:00 +3°C° 0 mm 6 mps 752 mmHg 85%
02:00 +3°C° 0 mm 5 mps 752 mmHg 86%
03:00 +3°C° 0 mm 6 mps 753 mmHg 85%
04:00 +2°C° 0 mm 6 mps 753 mmHg 83%
05:00 +2°C° 0 mm 6 mps 754 mmHg 82%
06:00 +4°C° 0 mm 7 mps 754 mmHg 74%
07:00 +5°C° 0 mm 7 mps 755 mmHg 66%
08:00 +6°C° 0 mm 8 mps 755 mmHg 57%
09:00 +7°C° 0 mm 8 mps 755 mmHg 53%
10:00 +9°C° 0 mm 8 mps 756 mmHg 49%
11:00 +10°C° 0 mm 8 mps 756 mmHg 45%
12:00 +11°C° 0 mm 8 mps 756 mmHg 43%
13:00 +11°C° 0 mm 8 mps 756 mmHg 41%
14:00 +12°C° 0 mm 8 mps 757 mmHg 40%
15:00 +12°C° 0 mm 8 mps 757 mmHg 43%
16:00 +11°C° 0 mm 7 mps 757 mmHg 46%
17:00 +11°C° 0 mm 6 mps 758 mmHg 48%
18:00 +10°C° 0 mm 5 mps 758 mmHg 54%
19:00 +8°C° 0 mm 4 mps 759 mmHg 59%
20:00 +7°C° 0 mm 3 mps 759 mmHg 64%
21:00 +7°C° 0 mm 3 mps 759 mmHg 66%
22:00 +5°C° 0 mm 3 mps 760 mmHg 68%
23:00 +5°C° 0 mm 3 mps 760 mmHg 69%

Tomorrow, 10 May, Monday

Time Temperature Precipitation Wind Pressure Humidity
00:00 +4°C° 0 mm 3 mps 760 mmHg 71%
01:00 +4°C° 0 mm 3 mps 760 mmHg 72%
02:00 +4°C° 0 mm 3 mps 760 mmHg 73%
03:00 +4°C° 0 mm 3 mps 761 mmHg 74%
04:00 +3°C° 0 mm 3 mps 761 mmHg 75%
05:00 +3°C° 0 mm 3 mps 761 mmHg 76%
06:00 +5°C° 0 mm 3 mps 761 mmHg 68%
07:00 +7°C° 0 mm 4 mps 761 mmHg 60%
08:00 +11°C° 0 mm 4 mps 761 mmHg 53%
09:00 +12°C° 0 mm 5 mps 761 mmHg 49%
10:00 +13°C° 0 mm 5 mps 760 mmHg 45%
11:00 +14°C° 0 mm 5 mps 760 mmHg 40%
12:00 +14°C° 0 mm 6 mps 760 mmHg 40%
13:00 +15°C° 0 mm 6 mps 759 mmHg 39%
14:00 +15°C° 0 mm 6 mps 759 mmHg 39%
15:00 +15°C° 0 mm 6 mps 758 mmHg 42%
16:00 +14°C° 0 mm 6 mps 758 mmHg 45%
17:00 +14°C° 0 mm 6 mps 758 mmHg 49%
18:00 +12°C° 0 mm 5 mps 758 mmHg 55%
19:00 +10°C° 0 mm 5 mps 758 mmHg 61%
20:00 +8°C° 0 mm 4 mps 757 mmHg 67%
21:00 +8°C° 0 mm 5 mps 757 mmHg 67%
22:00 +7°C° 0 mm 5 mps 756 mmHg 68%
23:00 +7°C° 0 mm 6 mps 756 mmHg 69%

Day after tomorrow, 11 May, Tuesday

Time Temperature Precipitation Wind Pressure Humidity
00:00 +7°C° 0.1 mm 6 mps 755 mmHg 69%
01:00 +6°C° 0.1 mm 7 mps 755 mmHg 69%
02:00 +6°C° 0.1 mm 7 mps 754 mmHg 70%
03:00 +8°C° 0 mm 7 mps 754 mmHg 71%
04:00 +8°C° 0 mm 7 mps 754 mmHg 72%
05:00 +8°C° 0 mm 7 mps 753 mmHg 73%
06:00 +8°C° 0 mm 7 mps 753 mmHg 74%
07:00 +9°C° 0 mm 7 mps 753 mmHg 76%
08:00 +9°C° 0 mm 6 mps 753 mmHg 78%
09:00 +11°C° 0 mm 6 mps 753 mmHg 77%
10:00 +12°C° 0 mm 7 mps 753 mmHg 76%
11:00 +14°C° 0 mm 7 mps 752 mmHg 75%
12:00 +14°C° 0.1 mm 7 mps 752 mmHg 74%
13:00 +13°C° 0.1 mm 6 mps 753 mmHg 74%
14:00 +11°C° 0.1 mm 6 mps 753 mmHg 73%
15:00 +11°C° 0 mm 6 mps 753 mmHg 69%
16:00 +11°C° 0 mm 6 mps 753 mmHg 65%
17:00 +11°C° 0 mm 7 mps 753 mmHg 61%
18:00 +10°C° 0 mm 6 mps 753 mmHg 66%
19:00 +9°C° 0 mm 5 mps 753 mmHg 72%
20:00 +8°C° 0 mm 5 mps 752 mmHg 77%
21:00 +7°C° 0.1 mm 5 mps 752 mmHg 79%
22:00 +7°C° 0.1 mm 6 mps 752 mmHg 81%
23:00 +7°C° 0.1 mm 6 mps 752 mmHg 83%

12 May, Wednesday

Time Temperature Precipitation Wind Pressure Humidity
00:00 +7°C° 0.2 mm 6 mps 751 mmHg 84%
01:00 +5°C° 0.2 mm 6 mps 751 mmHg 85%
02:00 +5°C° 0.2 mm 6 mps 751 mmHg 86%
03:00 +5°C° 0.3 mm 6 mps 751 mmHg 87%
04:00 +5°C° 0.3 mm 6 mps 751 mmHg 88%
05:00 +5°C° 0.3 mm 6 mps 751 mmHg 89%
06:00 +5°C° 0.3 mm 6 mps 751 mmHg 89%
07:00 +6°C° 0.3 mm 5 mps 750 mmHg 89%
08:00 +7°C° 0.3 mm 5 mps 750 mmHg 88%
09:00 +7°C° 0.3 mm 5 mps 750 mmHg 84%
10:00 +8°C° 0.3 mm 5 mps 750 mmHg 80%
11:00 +9°C° 0.3 mm 5 mps 751 mmHg 76%
12:00 +10°C° 0.1 mm 5 mps 750 mmHg 70%
13:00 +12°C° 0.1 mm 5 mps 750 mmHg 64%
14:00 +13°C° 0.1 mm 5 mps 750 mmHg 58%
15:00 +13°C° 0 mm 5 mps 750 mmHg 58%
16:00 +13°C° 0 mm 5 mps 750 mmHg 58%
17:00 +13°C° 0 mm 4 mps 750 mmHg 59%
18:00 +12°C° 0 mm 4 mps 751 mmHg 62%
19:00 +11°C° 0 mm 3 mps 751 mmHg 65%
20:00 +12°C° 0 mm 2 mps 751 mmHg 68%
21:00 +10°C° 0 mm 2 mps 751 mmHg 76%
22:00 +9°C° 0 mm 3 mps 751 mmHg 83%
23:00 +9°C° 0 mm 3 mps 751 mmHg 90%

13 May, Thursday

Time Temperature Precipitation Wind Pressure Humidity
00:00 +9°C° 0 mm 3 mps 751 mmHg 91%
01:00 +9°C° 0 mm 2 mps 751 mmHg 92%
02:00 +10°C° 0 mm 2 mps 751 mmHg 93%
03:00 +10°C° 0 mm 2 mps 751 mmHg 92%
04:00 +10°C° 0 mm 2 mps 751 mmHg 91%
05:00 +10°C° 0 mm 3 mps 751 mmHg 90%
06:00 +12°C° 0 mm 3 mps 751 mmHg 84%
07:00 +14°C° 0 mm 4 mps 751 mmHg 78%
08:00 +15°C° 0 mm 5 mps 751 mmHg 72%
09:00 +17°C° 0 mm 5 mps 751 mmHg 67%
10:00 +20°C° 0 mm 6 mps 751 mmHg 62%
11:00 +21°C° 0 mm 6 mps 750 mmHg 57%
12:00 +22°C° 0 mm 6 mps 750 mmHg 54%
13:00 +22°C° 0 mm 6 mps 750 mmHg 51%
14:00 +23°C° 0 mm 6 mps 749 mmHg 48%
15:00 +23°C° 0 mm 6 mps 749 mmHg 51%
16:00 +23°C° 0 mm 5 mps 749 mmHg 54%
17:00 +22°C° 0 mm 4 mps 749 mmHg 57%
18:00 +21°C° 0 mm 4 mps 749 mmHg 64%
19:00 +19°C° 0 mm 4 mps 749 mmHg 71%
20:00 +17°C° 0 mm 4 mps 748 mmHg 78%
21:00 +15°C° 0 mm 4 mps 748 mmHg 82%
22:00 +16°C° 0 mm 3 mps 748 mmHg 86%
23:00 +14°C° 0 mm 3 mps 748 mmHg 90%

14 May, Friday

Time Temperature Precipitation Wind Pressure Humidity
00:00 +14°C° 0 mm 3 mps 748 mmHg 92%
01:00 +14°C° 0 mm 3 mps 748 mmHg 94%
02:00 +14°C° 0 mm 3 mps 748 mmHg 96%
03:00 +14°C° 0 mm 3 mps 748 mmHg 96%
04:00 +13°C° 0 mm 3 mps 748 mmHg 96%
05:00 +14°C° 0 mm 2 mps 748 mmHg 96%
06:00 +16°C° 0 mm 3 mps 749 mmHg 85%
07:00 +18°C° 0 mm 3 mps 749 mmHg 75%
08:00 +20°C° 0 mm 3 mps 749 mmHg 64%
09:00 +21°C° 0 mm 3 mps 749 mmHg 58%
10:00 +22°C° 0 mm 3 mps 749 mmHg 51%
11:00 +24°C° 0 mm 3 mps 749 mmHg 45%
12:00 +25°C° 0 mm 3 mps 749 mmHg 44%
13:00 +26°C° 0 mm 4 mps 749 mmHg 43%
14:00 +27°C° 0 mm 4 mps 749 mmHg 43%
15:00 +26°C° 0 mm 3 mps 749 mmHg 46%
16:00 +26°C° 0 mm 3 mps 749 mmHg 48%
17:00 +26°C° 0 mm 3 mps 749 mmHg 51%
18:00 +24°C° 0 mm 3 mps 749 mmHg 56%
19:00 +21°C° 0 mm 2 mps 749 mmHg 60%
20:00 +20°C° 0 mm 2 mps 749 mmHg 65%
21:00 +19°C° 0.1 mm 2 mps 749 mmHg 70%
22:00 +18°C° 0.1 mm 2 mps 749 mmHg 76%
23:00 +17°C° 0.1 mm 2 mps 749 mmHg 81%
Show more

We Need Your Consent

Meteoprog and our Service Providers may store and access personal data such as cookies, device identifiers or other similar technologies on your device and process such data to personalise content and ads, as well as provide social media features and to analyse the traffic.

  • Store and/or access information on your device

    Cookies, device identifiers or other information can be stored or accessed on your device for the purposes indicated above.

  • Personalised ads and content, ad and content measurement, audience insights, and products development

    Ads and content can be personalised based on a profile. More data can be added to better personalise ads and content. Ad and content performance can be measured. Insights about the audience who saw the ads and content can be derived. Such data can be used to develop or improve user’s experience, systems and software.

By clicking ‘I Agree’ you will allow the use of indicated cookies, device identifiers, web beacons or other similar technologies. Your settings can be changed in the browser on your device.

For certain purposes, legitimate interests may be relied on, rather than consent. You can read more about this in our Privacy and Cookie Policy.